Lid_Strength_Index
9 9 8 9 9 9 10 9 11 10 9 7 6 6 5 5 6 6 6 5 5 4 4 3 3 4 4 4 4 4 4 3 3 2 1 1 2 2 1 2 3 2 3 3
10 9 9 10 9 9 9 8 9 9 9 6 5 5 5 5 6 6 6 5 5 4 4 3 3 5 4 4 5 4 4 4 3 2 2 2 2 2 2 2 3 3 3 3
12 9 9 11 9 9 8 8 7 10 7 5 6 6 5 5 5 6 5 5 5 4 4 3 3 4 4 4 4 4 5 5 5 2 2 2 2 3 3 3 3 3 2 2
12 10 15 9 6 7 8 7 7 7 6 5 5 5 5 4 5 5 5 5 4 4 3 2 3 4 4 4 4 5 5 5 5 2 3 3 3 3 2 3 3 3 2 2
13 13 11 9 8 8 8 8 6 7 6 5 5 6 5 4 4 4 4 4 3 3 2 4 4 4 4 4 4 5 6 5 4 3 3 3 3 3 3 3 3 3 3 3
11 14 15 10 7 5 6 11 5 5 5 6 6 8 6 4 4 4 3 3 3 3 3 4 3 4 5 5 5 5 5 5 4 4 3 3 3 3 3 3 3 3 3 3
13 13 11 7 6 5 11 10 6 5 5 6 7 6 5 4 4 3 3 3 2 4 4 3 4 5 5 5 5 5 5 5 4 3 3 3 3 3 3 3 3 3 3 3
13 14 15 6 7 9 8 6 5 5 5 5 5 5 5 4 4 4 4 4 4 4 4 4 5 5 5 5 5 5 5 5 3 3 3 4 4 4 3 3 4 3 3 3
10 10 7 6 6 5 4 5 5 5 5 4 5 5 5 5 4 4 4 4 4 5 6 6 5 5 6 6 5 5 3 3 3 3 3 4 5 4 4 4 4 4 4 4
10 7 6 5 5 5 4 5 4 4 4 4 5 4 5 4 4 4 4 5 6 6 6 7 6 6 5 5 5 3 3 3 3 3 4 4 5 4 4 4 4 4 4 5
9 8 7 7 5 4 4 4 4 4 4 4 4 4 4 4 5 5 6 6 6 6 7 8 7 6 5 4 2 3 3 3 3 3 4 4 4 4 4 3 5 4 4 5
12 8 8 7 5 4 5 5 4 4 5 4 4 4 4 4 5 6 6 6 7 7 7 7 6 6 4 2 3 3 3 4 4 4 4 4 4 4 8 9 9 9 10 8
8 6 6 5 5 5 5 4 4 4 4 4 4 3 4 5 6 7 7 7 8 7 7 7 6 5 3 3 3 3 3 3 4 5 5 4 5 4 5 5 9 9 9 9
4 5 7 7 6 4 4 4 3 3 3 3 3 3 4 5 7 7 7 6 7 8 7 6 5 4 4 3 3 3 3 9 5 5 4 4 5 4 4 4 5 5 7 7
6 6 7 5 5 4 4 4 5 5 4 4 3 4 5 6 6 7 7 7 6 7 7 6 5 5 3 3 3 4 4 5 4 4 4 6 5 4 4 4 5 5 5 7
4 5 5 6 5 5 4 4 5 5 5 4 4 4 5 5 7 8 7 7 7 7 6 5 5 4 3 4 5 5 5 9 8 4 5 5 5 4 4 5 5 6 6 7
7 9 8 8 6 5 5 4 4 5 4 4 4 5 6 7 8 8 7 6 6 5 5 5 5 4 5 5 5 5 4 4 11 5 5 5 4 4 5 5 6 6 6 7
7 7 6 6 5 5 5 5 4 4 4 4 5 7 7 8 8 6 6 6 6 6 5 4 4 5 6 5 5 4 5 5 5 5 5 5 5 5 6 6 6 6 7 8
5 4 5 5 4 5 4 5 5 5 6 7 8 8 8 7 7 7 6 7 7 7 5 4 9 6 5 7 6 5 5 5 5 5 5 7 6 6 6 6 6 6 8 9
4 4 4 4 4 4 4 5 5 6 6 7 8 8 9 7 7 7 7 7 5 4 4 6 5 5 5 7 8 5 5 5 5 5 6 6 7 6 6 8 7 8 9 9
4 4 4 4 4 4 4 4 6 6 6 6 7 7 7 7 7 7 7 6 5 5 6 8 5 6 6 7 6 5 5 5 5 6 6 7 7 6 6 6 7 8 9 10
4 4 4 4 4 4 4 5 5 6 6 6 6 6 7 7 6 5 4 7 8 12 8 6 6 10 8 10 5 5 5 6 6 6 7 7 6 6 6 7 7 9 9 10
5 4 4 4 4 4 4 4 4 5 6 5 4 4 5 5 5 6 8 7 7 10 7 7 12 13 12 5 5 6 6 6 6 7 7 6 6 6 7 7 8 9 10 11
4 5 4 4 3 4 4 4 3 3 3 3 4 5 6 6 7 6 7 11 13 10 8 9 11 13 11 6 6 7 7 7 8 7 6 9 6 6 7 8 9 9 10 11
3 5 4 4 4 4 4 4 5 5 5 5 4 3 3 3 5 6 7 9 13 9 8 14 13 12 6 7 7 8 8 8 8 6 6 6 6 7 7 9 9 9 10 11
4 4 4 3 3 4 3 3 5 5 4 4 4 4 4 5 6 7 7 9 7 9 7 6 6 6 7 8 8 8 8 8 7 7 7 6 7 7 9 9 9 9 10 11
4 7 3 3 3 3 3 3 4 5 6 4 5 5 5 5 7 7 9 6 6 6 7 7 7 8 7 8 8 8 8 8 10 7 7 6 7 8 9 9 9 9 10 10